Location: Unspecified
(0.0000°N, 0.0000°E)
Time: 02:52:50
(UTC+00:00)

N. Korean satellite - Pass Details

Date: 18 August 2019
Orbit: 457 x 507 km, 97.2° (Epoch: 16 August)

Event Time Altitude Azimuth Distance (km) Brightness Sun altitude
Rises 18:21:30 0° 199° (SSW) 2,547 10.3 -4.3°
Reaches altitude 10° 18:24:17 10° 224° (SW) 1,675 9.7 -5.0°
Maximum altitude 18:26:22 15° 259° (W) 1,406 10.1 -5.5°
Drops below altitude 10° 18:28:28 10° 295° (WNW) 1,686 11.0 -6.0°
Sets 18:31:16 0° 319° (NW) 2,574 11.2 -6.7°
